| time (UTC) | temp F | wind direction | speed MPH | gust MPH | rain 1hr in | rain 24hr in | rain mn in | humidity % | barometer mb |
| 20260504015017 | 50 | 0.0 | 0.0 | 0.00 | 0.00 | 0.00 | 57 | 1016.4 | |
| 20260504014017 | 51 | 0.0 | 0.0 | 0.00 | 0.00 | 0.00 | 56 | 1016.4 | |
| 20260504013017 | 52 | 0.0 | 0.0 | 0.00 | 0.00 | 0.00 | 54 | 1016.3 | |
| 20260504012017 | 52 | 0.0 | 0.0 | 0.00 | 0.00 | 0.00 | 52 | 1016.3 | |
| 20260504011017 | 53 | 0.0 | 0.0 | 0.00 | 0.00 | 0.00 | 50 | 1016.2 | |
| 20260504010017 | 53 | 0.0 | 0.0 | 0.00 | 0.00 | 0.00 | 49 | 1016.3 | |
| 20260504005017 | 55 | 0.0 | 0.0 | 0.00 | 0.00 | 0.00 | 46 | 1016.1 | |
| 20260504004017 | 55 | 0.0 | 0.0 | 0.00 | 0.00 | 0.00 | 44 | 1016.0 | |
| 20260504003017 | 57 | 0.0 | 0.0 | 0.00 | 0.00 | 0.00 | 43 | 1015.9 | |
| 20260504002017 | 58 | 0.0 | 0.0 | 0.00 | 0.00 | 0.00 | 42 | 1015.9 | |
| 20260504001017 | 58 | 0.0 | 0.0 | 0.00 | 0.00 | 0.00 | 40 | 1015.8 | |
| 20260504000017 | 59 | 0.0 | 0.0 | 0.00 | 0.00 | 0.00 | 39 | 1015.7 | |
| 20260503235017 | 60 | 0.0 | 0.0 | 0.00 | 0.00 | 0.00 | 37 | 1015.6 | |
| 20260503234016 | 61 | 0.0 | 0.0 | 0.00 | 0.00 | 0.00 | 35 | 1015.6 | |
| 20260503233017 | 61 | 0.0 | 0.0 | 0.00 | 0.00 | 0.00 | 34 | 1015.6 | |
| 20260503232017 | 61 | 0.0 | 0.0 | 0.00 | 0.00 | 0.00 | 33 | 1015.4 | |
| 20260503231016 | 61 | 0.0 | 0.0 | 0.00 | 0.00 | 0.00 | 32 | 1015.3 | |
| 20260503230017 | 62 | 0.0 | 0.0 | 0.00 | 0.00 | 0.00 | 32 | 1015.4 | |
| 20260503225017 | 62 | 0.0 | 4.0 | 0.00 | 0.00 | 0.00 | 31 | 1015.4 | |
| 20260503224017 | 62 | 0.0 | 2.0 | 0.00 | 0.00 | 0.00 | 31 | 1015.5 | |
| 20260503223017 | 63 | 0.0 | 3.0 | 0.00 | 0.00 | 0.00 | 31 | 1015.5 | |
| 20260503222017 | 63 | 338 | 1.0 | 5.0 | 0.00 | 0.00 | 0.00 | 30 | 1015.5 |
| 20260503221017 | 63 | 0.0 | 4.0 | 0.00 | 0.00 | 0.00 | 31 | 1015.5 | |
| 20260503220017 | 63 | 0.0 | 4.0 | 0.00 | 0.00 | 0.00 | 32 | 1015.5 | |
| 20260503215017 | 63 | 0.0 | 3.0 | 0.00 | 0.00 | 0.00 | 29 | 1015.6 | |
| 20260503214017 | 63 | 0.0 | 3.0 | 0.00 | 0.00 | 0.00 | 30 | 1015.7 | |
| 20260503213016 | 63 | 248 | 2.0 | 11.0 | 0.00 | 0.00 | 0.00 | 29 | 1015.7 |
| 20260503212016 | 64 | 248 | 4.0 | 12.0 | 0.00 | 0.00 | 0.00 | 29 | 1015.7 |
| 20260503211017 | 64 | 270 | 2.0 | 11.0 | 0.00 | 0.00 | 0.00 | 29 | 1015.6 |
| 20260503210016 | 64 | 315 | 1.0 | 5.0 | 0.00 | 0.00 | 0.00 | 30 | 1015.8 |
| 20260503205017 | 64 | 270 | 3.0 | 9.0 | 0.00 | 0.00 | 0.00 | 30 | 1015.9 |
| 20260503204017 | 64 | 270 | 5.0 | 11.0 | 0.00 | 0.00 | 0.00 | 29 | 1015.7 |
| 20260503203017 | 64 | 225 | 1.0 | 8.0 | 0.00 | 0.00 | 0.00 | 30 | 1015.8 |
| 20260503202017 | 64 | 293 | 4.0 | 12.0 | 0.00 | 0.00 | 0.00 | 29 | 1016.1 |
| 20260503201017 | 65 | 248 | 3.0 | 8.0 | 0.00 | 0.00 | 0.00 | 29 | 1016.3 |
| 20260503200016 | 64 | 270 | 2.0 | 10.0 | 0.00 | 0.00 | 0.00 | 31 | 1016.2 |
| 20260503195016 | 64 | 338 | 1.0 | 5.0 | 0.00 | 0.00 | 0.00 | 30 | 1016.4 |
| 20260503194016 | 64 | 0.0 | 3.0 | 0.00 | 0.00 | 0.00 | 31 | 1016.5 | |
| 20260503193017 | 63 | 293 | 2.0 | 9.0 | 0.00 | 0.00 | 0.00 | 32 | 1016.7 |
| 20260503192017 | 63 | 0 | 2.0 | 9.0 | 0.00 | 0.00 | 0.00 | 31 | 1016.8 |
| 20260503191017 | 64 | 270 | 1.0 | 4.0 | 0.00 | 0.00 | 0.00 | 31 | 1016.9 |
| 20260503190016 | 64 | 293 | 2.0 | 8.0 | 0.00 | 0.00 | 0.00 | 30 | 1017.1 |
| 20260503185016 | 64 | 0.0 | 3.0 | 0.00 | 0.00 | 0.00 | 33 | 1017.2 | |
| 20260503184017 | 62 | 0 | 2.0 | 9.0 | 0.00 | 0.00 | 0.00 | 33 | 1017.3 |
| 20260503183016 | 62 | 0.0 | 3.0 | 0.00 | 0.00 | 0.00 | 34 | 1017.5 | |
| 20260503182016 | 62 | 270 | 2.0 | 8.0 | 0.00 | 0.00 | 0.00 | 32 | 1017.5 |
| 20260503181016 | 62 | 248 | 1.0 | 7.0 | 0.00 | 0.00 | 0.00 | 33 | 1017.5 |
| 20260503180016 | 63 | 0 | 1.0 | 4.0 | 0.00 | 0.00 | 0.00 | 33 | 1017.6 |
| 20260503175016 | 62 | 248 | 2.0 | 10.0 | 0.00 | 0.00 | 0.00 | 33 | 1017.6 |
| 20260503174016 | 61 | 270 | 2.0 | 11.0 | 0.00 | 0.00 | 0.00 | 34 | 1017.8 |
| 20260503173017 | 60 | 270 | 2.0 | 9.0 | 0.00 | 0.00 | 0.00 | 33 | 1017.9 |
| 20260503172017 | 61 | 270 | 1.0 | 7.0 | 0.00 | 0.00 | 0.00 | 35 | 1018.0 |
| 20260503171016 | 61 | 315 | 1.0 | 9.0 | 0.00 | 0.00 | 0.00 | 34 | 1018.0 |